Weather History for Lafayette, LA

Change the Weather History Date:

Friday, March 18, 2011

  Actual Average Record
Temperature  
Mean Temperature 73 °F 63 °F  
Max Temperature 82 °F 73 °F 86 °F (1908)
Min Temperature 64 °F 53 °F 31 °F (1915)
Degree Days  
Heating Degree Days 0 4  
Month to date heating degree days 61 105  
Since 1 July heating degree days 1511 1335  
Cooling Degree Days 8 2  
Month to date cooling degree days 31 30  
Year to date cooling degree days 88 62  
Growing Degree Days 22 (Base 50)    
Moisture  
Dew Point 63 °F    
Average Humidity 68    
Maximum Humidity 87    
Minimum Humidity 49    
Precipitation  
Precipitation 0.00 in 0.11 in 2.32 in (1957)
Month to date precipitation 2.05 2.30  
Year to date precipitation 8.29 12.42  
Snow  
Snow 0.00 in 0.00 in 0.00 in ()
Month to date snowfall 0.0 0.0  
Since 1 July snowfall 0.0 T  
Snow Depth 0.00 in    
Sea Level Pressure  
Sea Level Pressure 30.22 in    
Wind  
Wind Speed 8 mph (SSW)    
Max Wind Speed 15 mph    
Max Gust Speed 21 mph    
Visibility 9 miles    
Events      
T = Trace of Precipitation, MM = Missing Value Source: NWS Daily Summary

Daily Weather History Graph

Daily Weather History Graph

Search for Another Location

Airport:

Trip Planner

Search our weather history database for the weather conditions in past years. The results will help you decide how hot, cold, wet, or windy it might be!

Date:

Astronomy

Mar. 18, 2011 Rise Set
Actual Time 7:14 AM CDT 7:17 PM CDT
Civil Twilight 6:50 AM CDT 7:41 PM CDT
Nautical Twilight 6:22 AM CDT 8:09 PM CDT
Astronomical Twilight 5:54 AM CDT 8:37 PM CDT
Moon 6:26 PM CDT (3/18) 6:08 AM CDT (3/18)
Length of Visible Light 12h 51m
Length of Day
12h 03m
Waxing Gibbous, 98% of the Moon is Illuminated
Mar 18
Waxing Gibbous
Mar 19
Full
Mar 26
Last Quarter
Apr 3
New
Apr 11
First Quarter

Hourly Weather History & Observations

Time (CDT) Temp. Heat Index Dew Point Humidity Pressure Visibility Wind Dir Wind Speed Gust Speed Precip Events Conditions
12:53 AM 69.1 °F - 64.9 °F 87% 30.23 in 10.0 mi South 6.9 mph - N/A   Overcast
1:34 AM 69.8 °F - 64.4 °F 83% 30.23 in 10.0 mi South 11.5 mph 17.3 mph N/A   Overcast
1:49 AM 69.8 °F - 64.4 °F 83% 30.23 in 10.0 mi South 9.2 mph - N/A   Overcast
1:53 AM 69.1 °F - 64.0 °F 84% 30.22 in 10.0 mi South 10.4 mph - N/A   Mostly Cloudy
2:53 AM 68.0 °F - 64.0 °F 87% 30.21 in 10.0 mi South 8.1 mph - N/A   Mostly Cloudy
3:01 AM 68.0 °F - 64.4 °F 88% 30.21 in 10.0 mi South 8.1 mph - N/A   Partly Cloudy
3:37 AM 66.2 °F - 64.4 °F 94% 30.20 in 9.0 mi South 8.1 mph - N/A   Mostly Cloudy
3:53 AM 68.0 °F - 64.0 °F 87% 30.19 in 9.0 mi South 9.2 mph - N/A   Overcast
4:05 AM 66.2 °F - 62.6 °F 88% 30.19 in 10.0 mi South 5.8 mph - N/A   Scattered Clouds
4:53 AM 64.0 °F - 61.0 °F 90% 30.19 in 7.0 mi SSW 4.6 mph - N/A   Partly Cloudy
5:01 AM 64.4 °F - 62.6 °F 94% 30.19 in 6.0 mi SSW 4.6 mph - N/A   Mostly Cloudy
5:15 AM 66.2 °F - 62.6 °F 88% 30.19 in 8.0 mi South 4.6 mph - N/A   Mostly Cloudy
5:23 AM 66.2 °F - 62.6 °F 88% 30.19 in 8.0 mi SSW 5.8 mph - N/A   Overcast
5:48 AM 66.2 °F - 62.6 °F 88% 30.20 in 8.0 mi SSW 5.8 mph - N/A   Overcast
5:53 AM 66.9 °F - 63.0 °F 87% 30.20 in 8.0 mi SSW 4.6 mph - N/A   Overcast
6:02 AM 66.2 °F - 62.6 °F 88% 30.20 in 8.0 mi SSW 3.5 mph - N/A   Overcast
6:49 AM 66.2 °F - 62.6 °F 88% 30.22 in 8.0 mi SSW 4.6 mph - N/A   Overcast
6:53 AM 66.9 °F - 63.0 °F 87% 30.22 in 8.0 mi SSW 4.6 mph - N/A   Overcast
7:04 AM 66.2 °F - 62.6 °F 88% 30.22 in 8.0 mi SSW 5.8 mph - N/A   Mostly Cloudy
7:27 AM 66.2 °F - 62.6 °F 88% 30.22 in 10.0 mi SSW 5.8 mph - N/A   Partly Cloudy
7:53 AM 66.9 °F - 63.0 °F 87% 30.23 in 8.0 mi SSW 3.5 mph - N/A   Mostly Cloudy
8:53 AM 69.1 °F - 64.0 °F 84% 30.25 in 10.0 mi South 3.5 mph - N/A   Overcast
9:53 AM 70.0 °F - 63.0 °F 78% 30.26 in 10.0 mi SSW 6.9 mph - N/A   Mostly Cloudy
10:53 AM 73.9 °F - 62.1 °F 66% 30.27 in 10.0 mi SW 6.9 mph - N/A   Mostly Cloudy
11:28 AM 75.2 °F - 62.6 °F 65% 30.27 in 10.0 mi SW 6.9 mph - N/A   Scattered Clouds
11:53 AM 78.1 °F - 60.1 °F 54% 30.27 in 10.0 mi SSW 10.4 mph - N/A   Partly Cloudy
12:53 PM 78.1 °F - 60.1 °F 54% 30.26 in 10.0 mi SW 9.2 mph - N/A   Mostly Cloudy
1:53 PM 80.1 °F 80.7 °F 59.0 °F 48% 30.23 in 10.0 mi SSW 11.5 mph - N/A   Scattered Clouds
2:53 PM 80.1 °F 80.9 °F 60.1 °F 50% 30.21 in 10.0 mi South 8.1 mph 19.6 mph N/A   Mostly Cloudy
3:53 PM 80.1 °F 80.9 °F 60.1 °F 50% 30.20 in 8.0 mi South 11.5 mph - N/A   Partly Cloudy
4:53 PM 78.8 °F - 60.8 °F 54% 30.19 in 10.0 mi South 11.5 mph - N/A   Partly Cloudy
5:53 PM 75.9 °F - 62.1 °F 62% 30.19 in 10.0 mi South 10.4 mph - N/A   Scattered Clouds
6:53 PM 73.9 °F - 62.1 °F 66% 30.20 in 10.0 mi South 9.2 mph - N/A   Clear
7:53 PM 71.1 °F - 63.0 °F 75% 30.21 in 10.0 mi South 9.2 mph - N/A   Clear
8:53 PM 68.0 °F - 64.0 °F 87% 30.22 in 10.0 mi SSW 8.1 mph - N/A   Clear
9:53 PM 66.9 °F - 63.0 °F 87% 30.24 in 10.0 mi South 5.8 mph - N/A   Clear
10:53 PM 66.0 °F - 62.1 °F 87% 30.24 in 10.0 mi SSW 5.8 mph - N/A   Clear
11:28 PM 66.2 °F - 62.6 °F 88% 30.24 in 9.0 mi South 6.9 mph - N/A   Mostly Cloudy
11:53 PM 66.0 °F - 63.0 °F 90% 30.24 in 9.0 mi SSW 5.8 mph - N/A   Mostly Cloudy